Location: Saint-Hippolyte
(43.6394°N, 4.7559°E)
Time: 16:02:48
(UTC+00:00)

CZ-2C R/B - Pass Details

Date: 24 October 2020
Orbit: 703 x 909 km, 98.1° (Epoch: 24 November)

Event Time Altitude Azimuth Distance (km) Brightness Sun altitude
Rises 17:58:50 0° 153° (SSE) 3,524 6.2 -14.4°
Reaches altitude 10° 18:01:17 10° 150° (SSE) 2,586 5.5 -14.8°
Maximum altitude 18:06:58 60° 72° (ENE) 1,029 3.3 -15.9°
Drops below altitude 10° 18:12:35 10° 354° (N) 2,548 5.8 -16.9°
Sets 18:14:59 0° 351° (N) 3,468 6.5 -17.3°
